Menomonie, WI

2:29 AM CST on December 05, 2016 (GMT -0600)
Menomonie

Weather History for KLUM - May, 2014

Change the Weather History Date:

Saturday, May 17, 2014

  Actual Average (KEAU) Record (KEAU)
Temperature  
Mean Temperature 48 °F 58 °F  
Max Temperature 65 °F 70 °F 93 °F (1987)
Min Temperature 32 °F 46 °F 29 °F (2002)
Degree Days  
Heating Degree Days 16 8  
Month to date heating degree days 170  
Since 1 July heating degree days 7810  
Cooling Degree Days 0 1  
Month to date cooling degree days 11  
Year to date cooling degree days 15  
Moisture  
Dew Point 28 °F    
Average Humidity 47    
Maximum Humidity 92    
Minimum Humidity 20    
Precipitation  
Precipitation 0.00 in 0.11 in 1.92 in (1910)
Month to date precipitation 1.84  
Year to date precipitation 8.02  
Snow  
Snow 0.00 in 0.00 in T in (1915)
Month to date snowfall 0.2  
Since 1 July snowfall 47.0  
Snow Depth -    
Sea Level Pressure  
Sea Level Pressure 30.02 in    
Wind  
Wind Speed 5 mph (WSW)    
Max Wind Speed 17 mph    
Max Gust Speed 24 mph    
Visibility 10 miles    
Events      
T = Trace of Precipitation, MM = Missing Value Source: NWS Daily Summary

Daily Weather History Graph

Daily Weather History Graph

Search for Another Location

Airport or City:

Trip Planner

Search our weather history database for the weather conditions in past years. The results will help you decide how hot, cold, wet, or windy it might be!

Date:

Astronomy

May. 17, 2014 Rise Set
Actual Time 5:36 AM CDT 8:31 PM CDT
Civil Twilight 5:02 AM CDT 9:06 PM CDT
Nautical Twilight 4:18 AM CDT 9:50 PM CDT
Astronomical Twilight 3:26 AM CDT 10:42 PM CDT
Moon 11:31 PM CDT (5/17) 8:20 AM CDT (5/17)
Length of Visible Light 16h 04m
Length of Day
14h 55m
Waning Gibbous, 89% of the Moon is Illuminated
May 17
Waning Gibbous
May 21
Last Quarter
May 28
New
Jun 5
First Quarter
Jun 12
Full

Hourly Weather History & Observations

Time (CDT) Temp. Windchill Dew Point Humidity Pressure Visibility Wind Dir Wind Speed Gust Speed Precip Events Conditions
12:15 AM 41.4 °F 39.4 °F 27.7 °F 58% 30.04 in 10.0 mi WSW 3.5 mph - N/A   Clear
12:35 AM 41.4 °F 38.4 °F 28.0 °F 59% 30.04 in 10.0 mi WSW 4.6 mph - N/A   Clear
12:55 AM 40.3 °F 38.2 °F 28.4 °F 63% 30.04 in 10.0 mi WSW 3.5 mph - N/A   Clear
1:15 AM 39.9 °F 36.7 °F 29.3 °F 66% 30.04 in 10.0 mi WSW 4.6 mph - N/A   Clear
1:35 AM 40.1 °F 36.9 °F 29.1 °F 65% 30.03 in 10.0 mi WSW 4.6 mph - N/A   Clear
1:55 AM 39.2 °F - 29.3 °F 68% 30.03 in 10.0 mi Calm Calm - N/A   Clear
2:15 AM 37.8 °F - 29.7 °F 73% 30.03 in 10.0 mi Calm Calm - N/A   Clear
2:35 AM 37.9 °F - 31.1 °F 76% 30.03 in 10.0 mi Calm Calm - N/A   Clear
2:55 AM 38.3 °F - 32.0 °F 78% 30.03 in 10.0 mi Calm Calm - N/A   Clear
3:15 AM 36.0 °F - 31.5 °F 84% 30.03 in 10.0 mi Calm Calm - N/A   Clear
3:35 AM 35.6 °F - 31.1 °F 84% 30.03 in 10.0 mi Calm Calm - N/A   Clear
3:55 AM 36.0 °F - 30.6 °F 81% 30.03 in 10.0 mi Calm Calm - N/A   Clear
4:15 AM 36.0 °F - 30.2 °F 80% 30.03 in 10.0 mi Calm Calm - N/A   Clear
4:35 AM 34.7 °F - 29.1 °F 80% 30.03 in 10.0 mi Calm Calm - N/A   Clear
4:55 AM 35.6 °F - 28.9 °F 77% 30.03 in 10.0 mi Calm Calm - N/A   Scattered Clouds
5:15 AM 34.0 °F - 30.0 °F 85% 30.03 in 10.0 mi Calm Calm - N/A   Mostly Cloudy
5:35 AM 33.1 °F - 30.9 °F 92% 30.04 in 10.0 mi Calm Calm - N/A   Overcast
5:55 AM 32.9 °F - 30.4 °F 90% 30.04 in 10.0 mi Calm Calm - N/A   Mostly Cloudy
6:15 AM 34.2 °F - 32.0 °F 92% 30.04 in 10.0 mi Calm Calm - N/A   Mostly Cloudy
6:35 AM 34.5 °F - 31.8 °F 90% 30.04 in 10.0 mi Calm Calm - N/A   Mostly Cloudy
6:55 AM 36.7 °F - 32.9 °F 86% 30.04 in 10.0 mi Calm Calm - N/A   Mostly Cloudy
7:15 AM 39.6 °F - 33.1 °F 78% 30.05 in 10.0 mi Calm Calm - N/A   Scattered Clouds
7:35 AM 44.8 °F 42.4 °F 32.2 °F 61% 30.05 in 10.0 mi WSW 4.6 mph - N/A   Mostly Cloudy
7:55 AM 45.5 °F 43.2 °F 31.6 °F 58% 30.05 in 10.0 mi WSW 4.6 mph - N/A   Scattered Clouds
8:15 AM 48.0 °F - 32.0 °F 54% 30.04 in 10.0 mi WSW 6.9 mph - N/A   Scattered Clouds
8:35 AM 50.4 °F - 31.3 °F 48% 30.04 in 10.0 mi West 6.9 mph - N/A   Clear
8:55 AM 52.0 °F - 30.6 °F 44% 30.04 in 10.0 mi West 10.4 mph - N/A   Clear
9:15 AM 53.6 °F - 29.7 °F 40% 30.04 in 10.0 mi West 12.7 mph - N/A   Clear
9:35 AM 54.9 °F - 29.8 °F 38% 30.04 in 10.0 mi West 11.5 mph - N/A   Clear
9:55 AM 56.1 °F - 29.7 °F 36% 30.04 in 10.0 mi West 12.7 mph - N/A   Clear
10:15 AM 56.7 °F - 30.4 °F 37% 30.04 in 10.0 mi West 8.1 mph - N/A   Clear
10:35 AM 57.9 °F - 28.2 °F 32% 30.03 in 10.0 mi West 11.5 mph 16.1 mph N/A   Scattered Clouds
10:55 AM 59.0 °F - 28.0 °F 31% 30.03 in 10.0 mi West 12.7 mph 20.7 mph N/A   Scattered Clouds
11:15 AM 59.7 °F - 26.2 °F 28% 30.03 in 10.0 mi WSW 9.2 mph 21.9 mph N/A   Scattered Clouds
11:35 AM 59.5 °F - 23.9 °F 25% 30.03 in 10.0 mi WSW 15.0 mph 19.6 mph N/A   Scattered Clouds
11:55 AM 60.8 °F - 24.3 °F 25% 30.03 in 10.0 mi WSW 12.7 mph 17.3 mph N/A   Mostly Cloudy
12:15 PM 60.6 °F - 24.3 °F 25% 30.03 in 10.0 mi West 17.3 mph 23.0 mph N/A   Mostly Cloudy
12:35 PM 61.0 °F - 23.7 °F 24% 30.03 in 10.0 mi WSW 15.0 mph 21.9 mph N/A   Scattered Clouds
12:55 PM 62.1 °F - 23.2 °F 23% 30.02 in 10.0 mi SW 11.5 mph 18.4 mph N/A   Scattered Clouds
1:15 PM 63.5 °F - 24.1 °F 22% 30.01 in 10.0 mi WSW 15.0 mph 23.0 mph N/A   Scattered Clouds
1:35 PM 63.5 °F - 25.0 °F 23% 30.01 in 10.0 mi WSW 12.7 mph - N/A   Scattered Clouds
1:55 PM 62.4 °F - 24.4 °F 24% 30.01 in 10.0 mi WSW 9.2 mph 18.4 mph N/A   Scattered Clouds
2:15 PM 63.1 °F - 25.5 °F 24% 30.01 in 10.0 mi WSW 16.1 mph 19.6 mph N/A   Scattered Clouds
2:35 PM 63.9 °F - 25.5 °F 23% 30.00 in 10.0 mi SW 13.8 mph 18.4 mph N/A   Mostly Cloudy
2:55 PM 64.0 °F - 25.0 °F 23% 30.00 in 10.0 mi West 11.5 mph - N/A   Mostly Cloudy
3:15 PM 63.3 °F - 25.2 °F 23% 29.99 in 10.0 mi SW 16.1 mph 20.7 mph N/A   Mostly Cloudy
3:35 PM 63.5 °F - 26.1 °F 24% 29.99 in 10.0 mi WSW 12.7 mph 16.1 mph N/A   Scattered Clouds
3:55 PM 62.8 °F - 26.1 °F 25% 29.98 in 10.0 mi West 5.8 mph - N/A   Mostly Cloudy
4:15 PM 63.5 °F - 25.7 °F 24% 29.98 in 10.0 mi WSW 10.4 mph - N/A   Mostly Cloudy
4:35 PM 64.8 °F - 25.7 °F 23% 29.98 in 10.0 mi West 12.7 mph 20.7 mph N/A   Scattered Clouds
4:55 PM 65.3 °F - 25.0 °F 22% 29.98 in 10.0 mi West 15.0 mph 24.2 mph N/A   Clear
5:15 PM 64.4 °F - 24.4 °F 22% 29.98 in 10.0 mi West 10.4 mph - N/A   Scattered Clouds
5:35 PM 64.4 °F - 25.0 °F 22% 29.98 in 10.0 mi WNW 11.5 mph - N/A   Scattered Clouds
5:55 PM 64.6 °F - 23.0 °F 21% 29.98 in 10.0 mi WNW 10.4 mph - N/A   Clear
6:15 PM 64.4 °F - 22.6 °F 20% 29.99 in 10.0 mi West 9.2 mph - N/A   Scattered Clouds
6:35 PM 64.4 °F - 22.1 °F 20% 29.99 in 10.0 mi West 10.4 mph 16.1 mph N/A   Scattered Clouds
6:55 PM 63.9 °F - 22.5 °F 21% 29.99 in 10.0 mi West 9.2 mph - N/A   Clear
7:15 PM 63.5 °F - 22.5 °F 21% 29.99 in 10.0 mi West 8.1 mph - N/A   Clear
7:35 PM 62.8 °F - 24.1 °F 23% 29.99 in 10.0 mi West 4.6 mph - N/A   Clear
7:55 PM 61.7 °F - 24.4 °F 24% 30.00 in 10.0 mi West 4.6 mph - N/A   Clear
8:15 PM 59.9 °F - 25.5 °F 27% 30.00 in 10.0 mi SW 5.8 mph - N/A   Clear
8:35 PM 57.7 °F - 26.6 °F 30% 30.00 in 10.0 mi SSW 3.5 mph - N/A   Clear
8:55 PM 56.3 °F - 26.6 °F 32% 30.00 in 10.0 mi SSW 4.6 mph - N/A   Clear
9:15 PM 54.9 °F - 26.6 °F 34% 30.00 in 10.0 mi SSW 3.5 mph - N/A   Clear
9:35 PM 53.2 °F - 31.6 °F 44% 30.01 in 10.0 mi Calm Calm - N/A   Clear
9:55 PM 52.5 °F - 31.1 °F 44% 30.01 in 10.0 mi South 3.5 mph - N/A   Clear
10:15 PM 53.1 °F - 29.3 °F 40% 30.01 in 10.0 mi Calm Calm - N/A   Clear
10:35 PM 52.3 °F - 31.5 °F 45% 30.02 in 10.0 mi Calm Calm - N/A   Clear
10:55 PM 50.4 °F - 36.0 °F 58% 30.02 in 10.0 mi Calm Calm - N/A   Clear
11:15 PM 48.2 °F - 36.1 °F 63% 30.02 in 10.0 mi Calm Calm - N/A   Clear
11:35 PM 49.1 °F - 36.0 °F 61% 30.02 in 10.0 mi Calm Calm - N/A   Clear
11:55 PM 46.9 °F - 36.1 °F 66% 30.03 in 10.0 mi Calm Calm - N/A   Clear